FW0237 Weather Reports


time (UTC)temp
C
wind
direction
speed
KPH
gust
KPH
rain 1hr
cm
rain 24hr
cm
rain mn
cm
humidity
%
barometer
mb
20210518204501 23 88 1.6 9.7 0.00 0.00 0.00 32 1028.1
20210518204000 23 37 1.6 9.7 0.00 0.00 0.00 33 1028.2
20210518203459 24 103 1.6 9.7 0.00 0.00 0.00 33 1028.1
20210518203000 24 273 3.2 12.9 0.00 0.00 0.00 36 1028.1
20210518202500 23 338 3.2 12.9 0.00 0.00 0.00 34 1028.2
20210518201958 24 113 1.6 11.3 0.00 0.00 0.00 35 1028.2
20210518201459 24 78 3.2 12.9 0.00 0.00 0.00 33 1028.2
20210518200959 23 11 3.2 14.5 0.00 0.00 0.00 34 1028.2
20210518200500 24 325 3.2 14.5 0.00 0.00 0.00 31 1028.4
20210518195958 24 327 1.6 9.7 0.00 0.00 0.00 31 1028.4
20210518195459 24 105 1.6 14.5 0.00 0.00 0.00 36 1028.4
20210518194958 24 65 1.6 14.5 0.00 0.00 0.00 34 1028.4
20210518194458 24 95 1.6 12.9 0.00 0.00 0.00 33 1028.4
20210518193959 24 63 1.6 9.7 0.00 0.00 0.00 34 1028.5
20210518193455 23 36 1.6 9.7 0.00 0.00 0.00 37 1028.7
20210518192958 23 81 1.6 8.0 0.00 0.00 0.00 36 1028.8
20210518192457 24 38 1.6 8.0 0.00 0.00 0.00 36 1028.7
20210518191957 23 15 1.6 8.0 0.00 0.00 0.00 35 1028.8
20210518191456 23 94 1.6 9.7 0.00 0.00 0.00 37 1028.8
20210518190956 24 342 1.6 9.7 0.00 0.00 0.00 36 1028.9
20210518190457 24 96 1.6 9.7 0.00 0.00 0.00 35 1028.9
20210518185955 23 111 1.6 11.3 0.00 0.00 0.00 37 1029.0
20210518185456 23 117 3.2 14.5 0.00 0.00 0.00 37 1029.0
20210518184959 23 107 3.2 14.5 0.00 0.00 0.00 35 1029.1
20210518184456 23 336 1.6 12.9 0.00 0.00 0.00 37 1029.2
20210518183956 23 78 1.6 11.3 0.00 0.00 0.00 36 1029.4
20210518183455 23 71 1.6 11.3 0.00 0.00 0.00 36 1029.4
20210518182957 23 78 1.6 9.7 0.00 0.00 0.00 35 1029.4
20210518182456 23 88 1.6 9.7 0.00 0.00 0.00 34 1029.5
20210518181957 23 339 0.0 3.2 0.00 0.00 0.00 35 1029.5
20210518181457 23 338 0.0 0.0 0.00 0.00 0.00 34 1029.6
20210518180956 23 141 0.0 6.4 0.00 0.00 0.00 33 1029.6
20210518180455 23 108 1.6 6.4 0.00 0.00 0.00 36 1029.7
20210518175954 23 203 1.6 8.0 0.00 0.00 0.00 35 1029.6
20210518175456 23 101 1.6 9.7 0.00 0.00 0.00 34 1029.6
20210518174955 23 80 1.6 9.7 0.00 0.00 0.00 34 1029.6
20210518174455 22 52 1.6 11.3 0.00 0.00 0.00 35 1029.6
20210518173954 23 90 1.6 11.3 0.00 0.00 0.00 34 1029.8
20210518173454 23 76 3.2 12.9 0.00 0.00 0.00 33 1029.9
20210518172954 23 137 3.2 12.9 0.00 0.00 0.00 37 1029.8
20210518172453 23 190 1.6 9.7 0.00 0.00 0.00 37 1030.0
20210518171955 23 331 1.6 11.3 0.00 0.00 0.00 35 1030.0
20210518171455 23 90 1.6 11.3 0.00 0.00 0.00 34 1030.1
20210518170953 22 134 1.6 14.5 0.00 0.00 0.00 36 1030.1
20210518170454 22 115 3.2 14.5 0.00 0.00 0.00 35 1030.2
20210518165953 23 124 3.2 14.5 0.00 0.00 0.00 37 1030.2
20210518165454 22 56 4.8 14.5 0.00 0.00 0.00 39 1030.2
20210518164953 22 22 3.2 12.9 0.00 0.00 0.00 39 1030.1
20210518164454 23 308 3.2 11.3 0.00 0.00 0.00 38 1030.2
20210518163953 23 190 3.2 11.3 0.00 0.00 0.00 41 1030.3
20210518163454 23 96 3.2 14.5 0.00 0.00 0.00 41 1030.2
20210518162957 22 86 3.2 14.5 0.00 0.00 0.00 42 1030.4
20210518162453 22 109 3.2 11.3 0.00 0.00 0.00 41 1030.3
20210518161954 23 328 3.2 11.3 0.00 0.00 0.00 41 1030.3
20210518161453 22 47 3.2 14.5 0.00 0.00 0.00 42 1030.4
20210518160955 22 63 3.2 14.5 0.00 0.00 0.00 42 1030.4
20210518160453 22 115 3.2 12.9 0.00 0.00 0.00 43 1030.4
20210518155953 22 319 3.2 14.5 0.00 0.00 0.00 46 1030.3
20210518155453 22 323 4.8 14.5 0.00 0.00 0.00 47 1030.5
20210518154951 22 9 4.8 12.9 0.00 0.00 0.00 46 1030.5
20210518154450 22 94 3.2 12.9 0.00 0.00 0.00 49 1030.5
20210518154000 22 115 3.2 9.7 0.00 0.00 0.00 48 1030.5
20210518153450 22 300 3.2 11.3 0.00 0.00 0.00 50 1030.6
20210518152949 22 310 3.2 14.5 0.00 0.00 0.00 48 1030.6
20210518152449 22 321 1.6 14.5 0.00 0.00 0.00 46 1030.6
20210518151949 22 290 1.6 4.8 0.00 0.00 0.00 46 1030.6
20210518151456 22 68 1.6 8.0 0.00 0.00 0.00 44 1030.6
20210518150949 22 63 3.2 8.0 0.00 0.00 0.00 44 1030.5
20210518150449 21 107 1.6 9.7 0.00 0.00 0.00 41 1030.6
20210518145948 21 49 1.6 9.7 0.00 0.00 0.00 45 1030.6
20210518145447 21 82 1.6 6.4 0.00 0.00 0.00 46 1030.6
20210518144947 21 45 1.6 6.4 0.00 0.00 0.00 45 1030.6
20210518144447 22 325 0.0 4.8 0.00 0.00 0.00 46 1030.5
20210518143948 21 51 0.0 1.6 0.00 0.00 0.00 47 1030.5
20210518143447 21 24 1.6 9.7 0.00 0.00 0.00 48 1030.5
20210518142949 21 140 1.6 9.7 0.00 0.00 0.00 50 1030.5
20210518142448 21 138 1.6 6.4 0.00 0.00 0.00 49 1030.4
20210518141947 21 355 1.6 9.7 0.00 0.00 0.00 52 1030.4
20210518141447 21 321 1.6 9.7 0.00 0.00 0.00 52 1030.3
20210518140948 21 69 1.6 6.4 0.00 0.00 0.00 53 1030.3
20210518140446 21 98 1.6 6.4 0.00 0.00 0.00 55 1030.2
20210518135947 20 92 1.6 11.3 0.00 0.00 0.00 58 1030.2
20210518135446 20 92 1.6 11.3 0.00 0.00 0.00 59 1030.2
20210518134946 20 88 0.0 3.2 0.00 0.00 0.00 55 1030.3
20210518134446 20 92 0.0 3.2 0.00 0.00 0.00 54 1030.2
20210518133948 20 96 0.0 0.0 0.00 0.00 0.00 56 1030.2
20210518133448 20 90 0.0 0.0 0.00 0.00 0.00 57 1030.2
20210518132945 20 333 0.0 0.0 0.00 0.00 0.00 58 1030.2
20210518132446 20 74 0.0 0.0 0.00 0.00 0.00 60 1030.1
20210518131947 20 323 0.0 0.0 0.00 0.00 0.00 61 1029.9
20210518131444 19 103 0.0 4.8 0.00 0.00 0.00 62 1030.0
20210518130945 19 339 0.0 4.8 0.00 0.00 0.00 63 1029.9
20210518130444 19 338 0.0 8.0 0.00 0.00 0.00 64 1029.8
20210518125941 19 327 0.0 8.0 0.00 0.00 0.00 64 1029.8
20210518125441 19 89 1.6 6.4 0.00 0.00 0.00 64 1029.7
20210518124943 19 86 1.6 6.4 0.00 0.00 0.00 64 1029.6
20210518124443 19 79 0.0 4.8 0.00 0.00 0.00 65 1029.6
20210518123942 19 84 1.6 4.8 0.00 0.00 0.00 66 1029.6
20210518123445 18 85 1.6 6.4 0.00 0.00 0.00 67 1029.6
20210518122940 18 87 1.6 6.4 0.00 0.00 0.00 67 1029.6
20210518122442 18 88 1.6 6.4 0.00 0.00 0.00 68 1029.4
20210518121942 18 87 1.6 6.4 0.00 0.00 0.00 71 1029.4
20210518121443 18 88 0.0 4.8 0.00 0.00 0.00 74 1029.3
20210518120941 18 90 0.0 3.2 0.00 0.00 0.00 76 1029.3
20210518120441 17 92 1.6 4.8 0.00 0.00 0.00 77 1029.3
20210518115942 17 91 1.6 6.4 0.00 0.00 0.00 78 1029.2
20210518115441 17 95 1.6 6.4 0.00 0.00 0.00 80 1029.2
20210518114942 17 102 0.0 4.8 0.00 0.00 0.00 80 1029.2
20210518114440 17 82 0.0 3.2 0.00 0.00 0.00 82 1029.1
20210518113942 16 81 1.6 8.0 0.00 0.00 0.00 83 1029.2
20210518113442 16 81 1.6 8.0 0.00 0.00 0.00 83 1029.0
20210518112942 16 76 1.6 6.4 0.00 0.00 0.00 85 1029.0
20210518112441 16 77 1.6 6.4 0.00 0.00 0.00 86 1028.9
20210518111944 15 83 1.6 6.4 0.00 0.00 0.00 88 1028.8
20210518111446 15 85 1.6 6.4 0.00 0.00 0.00 89 1028.8
20210518110942 15 82 0.0 3.2 0.00 0.00 0.00 90 1028.7
20210518110440 14 81 0.0 3.2 0.00 0.00 0.00 91 1028.6
20210518105940 14 80 0.0 0.0 0.00 0.00 0.00 91 1028.6
20210518105441 13 80 0.0 0.0 0.00 0.00 0.00 92 1028.6
20210518104941 13 76 0.0 0.0 0.00 0.00 0.00 92 1028.6
20210518104440 13 74 0.0 0.0 0.00 0.00 0.00 92 1028.5
20210518103940 13 75 0.0 1.6 0.00 0.00 0.00 92 1028.4
20210518103441 13 75 0.0 1.6 0.00 0.00 0.00 92 1028.4
20210518102943 13 75 0.0 0.0 0.00 0.00 0.00 93 1028.2
20210518102446 12 75 0.0 0.0 0.00 0.00 0.00 93 1028.3
20210518101940 12 75 0.0 0.0 0.00 0.00 0.00 93 1028.2
20210518101441 12 75 0.0 0.0 0.00 0.00 0.00 92 1028.0
20210518100940 12 75 0.0 0.0 0.00 0.00 0.00 92 1028.0
20210518100442 12 75 0.0 0.0 0.00 0.00 0.00 92 1027.8
20210518095941 12 75 0.0 0.0 0.00 0.00 0.00 92 1027.8
20210518095439 12 75 0.0 0.0 0.00 0.00 0.00 92 1027.8
20210518094938 12 75 0.0 0.0 0.00 0.00 0.00 92 1027.7
20210518094439 12 75 0.0 0.0 0.00 0.00 0.00 92 1027.7
20210518093938 12 75 0.0 0.0 0.00 0.00 0.00 92 1027.6
20210518093438 12 75 0.0 0.0 0.00 0.00 0.00 92 1027.6
20210518092940 12 75 0.0 0.0 0.00 0.00 0.00 92 1027.6
20210518092438 13 75 0.0 0.0 0.00 0.00 0.00 92 1027.4
20210518091944 13 75 0.0 0.0 0.00 0.00 0.00 92 1027.6
20210518091439 13 75 0.0 0.0 0.00 0.00 0.00 92 1027.5
20210518090937 13 75 0.0 0.0 0.00 0.00 0.00 93 1027.5
20210518090436 13 75 0.0 0.0 0.00 0.00 0.00 93 1027.6
20210518085936 13 75 0.0 0.0 0.00 0.00 0.00 92 1027.6
20210518085438 13 75 0.0 0.0 0.00 0.00 0.00 92 1027.6
20210518084943 13 75 0.0 0.0 0.00 0.00 0.00 92 1027.5
20210518084436 13 75 0.0 0.0 0.00 0.00 0.00 92 1027.6
20210518083936 13 75 0.0 0.0 0.00 0.00 0.00 92 1027.5
20210518083432 13 75 0.0 0.0 0.00 0.00 0.00 92 1027.4
20210518082933 13 75 0.0 0.0 0.00 0.00 0.00 93 1027.4
20210518082432 13 75 0.0 0.0 0.00 0.00 0.00 92 1027.4
20210518081934 13 75 0.0 0.0 0.00 0.00 0.00 92 1027.4
20210518081433 13 75 0.0 0.0 0.00 0.00 0.00 92 1027.4
20210518080942 13 75 0.0 0.0 0.00 0.00 0.00 92 1027.4
20210518080432 13 75 0.0 0.0 0.00 0.00 0.00 92 1027.4
20210518075932 13 75 0.0 0.0 0.00 0.00 0.00 92 1027.4
20210518075435 13 75 0.0 0.0 0.00 0.00 0.00 92 1027.4
20210518074934 13 75 0.0 0.0 0.00 0.00 0.00 92 1027.5
20210518074430 13 75 0.0 0.0 0.00 0.00 0.00 92 1027.4
20210518073932 13 75 0.0 0.0 0.00 0.00 0.00 92 1027.4
20210518073440 13 75 0.0 0.0 0.00 0.00 0.00 92 1027.5
20210518072930 13 75 0.0 0.0 0.00 0.00 0.00 92 1027.4
20210518072431 13 75 0.0 0.0 0.00 0.00 0.00 92 1027.6
20210518071935 13 75 0.0 0.0 0.00 0.00 0.00 91 1027.6
20210518071434 13 75 0.0 0.0 0.00 0.00 0.00 91 1027.4
20210518070932 13 75 0.0 0.0 0.00 0.00 0.00 91 1027.4
20210518070430 13 75 0.0 0.0 0.00 0.00 0.00 91 1027.4
20210518065930 13 75 0.0 0.0 0.00 0.00 0.00 91 1027.4
20210518065429 14 75 0.0 0.0 0.00 0.00 0.00 91 1027.3
20210518064930 14 75 0.0 0.0 0.00 0.00 0.00 91 1027.3
20210518064428 14 75 0.0 0.0 0.00 0.00 0.00 90 1027.3
20210518063928 14 75 0.0 0.0 0.00 0.00 0.00 91 1027.3
20210518063429 14 75 0.0 0.0 0.00 0.00 0.00 91 1027.3
20210518062930 14 75 0.0 0.0 0.00 0.00 0.00 90 1027.4
20210518062428 14 75 0.0 0.0 0.00 0.00 0.00 90 1027.4
20210518061929 14 75 0.0 0.0 0.00 0.00 0.00 90 1027.4
20210518061428 14 75 0.0 0.0 0.00 0.00 0.00 90 1027.2
20210518060927 14 75 0.0 0.0 0.00 0.00 0.00 90 1027.3
20210518060426 14 75 0.0 0.0 0.00 0.00 0.00 90 1027.3
20210518055928 15 75 0.0 0.0 0.00 0.00 0.00 89 1027.2
20210518055426 15 75 0.0 0.0 0.00 0.00 0.00 89 1027.3
20210518054927 15 75 0.0 0.0 0.00 0.00 0.00 89 1027.3
20210518054428 15 75 0.0 1.6 0.00 0.00 0.00 90 1027.4
20210518053926 15 75 0.0 1.6 0.00 0.00 0.00 89 1027.4
20210518053431 15 75 0.0 0.0 0.00 0.00 0.00 89 1027.4
20210518052927 15 75 0.0 0.0 0.00 0.00 0.00 89 1027.4
20210518052423 15 75 0.0 0.0 0.00 0.00 0.00 89 1027.4
20210518051925 15 75 0.0 0.0 0.00 0.00 0.00 89 1027.4
20210518051424 15 75 0.0 0.0 0.00 0.00 0.00 88 1027.5
20210518050925 15 76 0.0 0.0 0.00 0.00 0.00 88 1027.6
20210518050423 15 76 0.0 0.0 0.00 0.00 0.00 88 1027.5
20210518045924 15 76 0.0 0.0 0.00 0.00 0.00 87 1027.6
20210518045424 15 75 0.0 0.0 0.00 0.00 0.00 88 1027.4
20210518044924 15 75 0.0 0.0 0.00 0.00 0.00 87 1027.5
20210518044423 15 75 0.0 0.0 0.00 0.00 0.00 87 1027.6
20210518043924 15 75 0.0 0.0 0.00 0.00 0.00 87 1027.6
20210518043422 15 75 0.0 0.0 0.00 0.00 0.00 86 1027.4
20210518042921 15 75 0.0 0.0 0.00 0.00 0.00 86 1027.6
20210518042419 15 75 0.0 0.0 0.00 0.00 0.00 86 1027.6
20210518041920 15 75 0.0 0.0 0.00 0.00 0.00 86 1027.6
20210518041419 15 75 0.0 0.0 0.00 0.00 0.00 85 1027.8
20210518040922 15 75 0.0 0.0 0.00 0.00 0.00 85 1027.9
20210518040421 15 75 0.0 0.0 0.00 0.00 0.00 85 1027.9
20210518035919 15 75 0.0 0.0 0.00 0.00 0.00 84 1027.9
20210518035417 16 75 0.0 0.0 0.00 0.00 0.00 83 1027.8
20210518034916 16 75 0.0 0.0 0.00 0.00 0.00 83 1027.8
20210518034418 16 75 0.0 0.0 0.00 0.00 0.00 82 1027.8
20210518033917 16 75 0.0 0.0 0.00 0.00 0.00 81 1027.9
20210518033418 16 75 0.0 0.0 0.00 0.00 0.00 81 1027.8
20210518032917 16 75 0.0 0.0 0.00 0.00 0.00 80 1027.7
20210518032415 16 76 0.0 0.0 0.00 0.00 0.00 79 1027.7
20210518031914 16 76 0.0 0.0 0.00 0.00 0.00 79 1027.6
20210518031414 16 76 0.0 0.0 0.00 0.00 0.00 78 1027.7
20210518030914 16 76 0.0 0.0 0.00 0.00 0.00 78 1027.8
20210518030414 16 76 0.0 0.0 0.00 0.00 0.00 78 1027.8
20210518025914 16 74 0.0 0.0 0.00 0.00 0.00 79 1027.8
20210518025413 16 74 0.0 0.0 0.00 0.00 0.00 79 1027.8
20210518024914 16 74 0.0 0.0 0.00 0.00 0.00 78 1027.8
20210518024412 16 74 0.0 0.0 0.00 0.00 0.00 78 1027.8
20210518023912 16 74 0.0 0.0 0.00 0.00 0.00 77 1027.8
20210518023410 16 74 0.0 0.0 0.00 0.00 0.00 76 1027.6
20210518022913 16 74 0.0 0.0 0.00 0.00 0.00 76 1027.7
20210518022410 17 74 0.0 0.0 0.00 0.00 0.00 75 1027.7
20210518021910 17 74 0.0 0.0 0.00 0.00 0.00 75 1027.6
20210518021410 17 74 0.0 0.0 0.00 0.00 0.00 74 1027.6
20210518020912 17 74 0.0 0.0 0.00 0.00 0.00 73 1027.4
20210518020411 17 74 0.0 0.0 0.00 0.00 0.00 72 1027.5
20210518015910 17 74 0.0 0.0 0.00 0.00 0.00 72 1027.5
20210518015410 17 74 0.0 0.0 0.00 0.00 0.00 71 1027.4
20210518014912 17 74 0.0 0.0 0.00 0.00 0.00 70 1027.4
20210518014410 17 74 0.0 0.0 0.00 0.00 0.00 69 1027.3
20210518013911 17 74 0.0 0.0 0.00 0.00 0.00 68 1027.3
20210518013411 17 74 0.0 0.0 0.00 0.00 0.00 67 1027.2
20210518012912 17 74 0.0 0.0 0.00 0.00 0.00 65 1027.2
20210518012411 17 74 0.0 0.0 0.00 0.00 0.00 62 1027.3
20210518011911 18 74 0.0 1.6 0.00 0.00 0.00 60 1027.3
20210518011410 18 74 0.0 1.6 0.00 0.00 0.00 58 1027.2
20210518010911 18 74 0.0 0.0 0.00 0.00 0.00 55 1027.3
20210518010410 18 74 0.0 0.0 0.00 0.00 0.00 54 1027.2
20210518005912 18 74 0.0 0.0 0.00 0.00 0.00 52 1027.1
20210518005412 18 74 0.0 0.0 0.00 0.00 0.00 50 1027.1
20210518004911 18 74 0.0 0.0 0.00 0.00 0.00 49 1027.1
20210518004409 18 74 0.0 0.0 0.00 0.00 0.00 48 1027.1
20210518003909 18 74 0.0 1.6 0.00 0.00 0.00 47 1027.0
20210518003409 18 74 0.0 1.6 0.00 0.00 0.00 46 1027.0
20210518002909 18 75 0.0 4.8 0.00 0.00 0.00 45 1027.0
20210518002406 19 77 0.0 4.8 0.00 0.00 0.00 45 1027.1
20210518001908 19 80 0.0 3.2 0.00 0.00 0.00 44 1027.0
20210518001406 19 80 0.0 3.2 0.00 0.00 0.00 46 1027.1
20210518000904 19 78 0.0 1.6 0.00 0.00 0.00 45 1027.1
20210518000404 19 78 0.0 0.0 0.00 0.00 0.00 46 1027.0
20210517235907 19 79 0.0 0.0 0.00 0.00 0.00 45 1027.0
20210517235404 19 78 0.0 0.0 0.00 0.00 0.00 45 1027.0
20210517234905 19 78 0.0 0.0 0.00 0.00 0.00 44 1027.0
20210517234404 20 78 0.0 8.0 0.00 0.00 0.00 43 1026.9
20210517233904 20 71 1.6 8.0 0.00 0.00 0.00 43 1026.8
20210517233405 20 76 0.0 6.4 0.00 0.00 0.00 43 1026.8
20210517232906 20 76 0.0 4.8 0.00 0.00 0.00 42 1026.8
20210517232404 20 73 0.0 4.8 0.00 0.00 0.00 42 1026.7
20210517231904 20 69 0.0 4.8 0.00 0.00 0.00 41 1026.7
20210517231405 20 68 1.6 6.4 0.00 0.00 0.00 40 1026.6
20210517230904 20 56 1.6 6.4 0.00 0.00 0.00 39 1026.5
20210517230406 20 77 0.0 3.2 0.00 0.00 0.00 39 1026.6
20210517225902 20 78 0.0 8.0 0.00 0.00 0.00 39 1026.6
20210517225402 20 86 3.2 12.9 0.00 0.00 0.00 41 1026.5
20210517224903 20 92 3.2 12.9 0.00 0.00 0.00 39 1026.5
20210517224402 20 83 1.6 6.4 0.00 0.00 0.00 40 1026.5
20210517223902 21 63 0.0 4.8 0.00 0.00 0.00 40 1026.6
20210517223405 20 67 0.0 0.0 0.00 0.00 0.00 41 1026.5
20210517222903 20 71 0.0 0.0 0.00 0.00 0.00 41 1026.5
20210517222402 21 59 1.6 9.7 0.00 0.00 0.00 41 1026.5
20210517221904 20 88 3.2 14.5 0.00 0.00 0.00 42 1026.4
20210517221407 21 60 1.6 14.5 0.00 0.00 0.00 41 1026.5
20210517220900 21 86 1.6 12.9 0.00 0.00 0.00 40 1026.5
20210517220401 21 104 1.6 4.8 0.00 0.00 0.00 40 1026.4
20210517215902 21 80 1.6 12.9 0.00 0.00 0.00 40 1026.4
20210517215400 21 98 1.6 12.9 0.00 0.00 0.00 39 1026.4
20210517214902 21 96 1.6 9.7 0.00 0.00 0.00 40 1026.5
20210517214403 21 76 1.6 11.3 0.00 0.00 0.00 38 1026.3
20210517213859 21 88 1.6 11.3 0.00 0.00 0.00 37 1026.4
20210517213403 21 115 1.6 11.3 0.00 0.00 0.00 37 1026.3
20210517212900 21 84 1.6 11.3 0.00 0.00 0.00 36 1026.4
20210517212359 21 76 3.2 9.7 0.00 0.00 0.00 37 1026.4
20210517211858 21 240 3.2 9.7 0.00 0.00 0.00 37 1026.3
20210517211359 22 122 1.6 9.7 0.00 0.00 0.00 38 1026.2
20210517210859 21 109 1.6 6.4 0.00 0.00 0.00 38 1026.3
20210517210356 22 268 1.6 11.3 0.00 0.00 0.00 37 1026.2
20210517205856 22 102 1.6 11.3 0.00 0.00 0.00 37 1026.1
20210517205357 22 96 1.6 9.7 0.00 0.00 0.00 37 1026.1